Anoka County, MN

12:03 PM CDT on July 24, 2017 (GMT -0500)
Anoka County / Blaine Airport

Weather History for KANE - October, 2012

Change the Weather History Date:

Wednesday, October 24, 2012

  Actual Average Record
Temperature  
Mean Temperature 54 °F -  
Max Temperature 60 °F 51 °F 68 °F (2000)
Min Temperature 48 °F 36 °F 21 °F (1999)
Degree Days  
Heating Degree Days 11    
Growing Degree Days 4 (Base 50)    
Moisture  
Dew Point 53 °F    
Average Humidity 94    
Maximum Humidity 100    
Minimum Humidity 82    
Precipitation  
Precipitation 0.00 in - - ()
Sea Level Pressure  
Sea Level Pressure 29.80 in    
Wind  
Wind Speed 4 mph (NNW)    
Max Wind Speed 17 mph    
Max Gust Speed 21 mph    
Visibility 5 miles    
Events Fog , Rain    
Averages and records for this station are not official NWS values.
T = Trace of Precipitation, MM = Missing Value Source: NWS Daily Summary

Daily Weather History Graph

Daily Weather History Graph

Search for Another Location

Airport or City:

Trip Planner

Search our weather history database for the weather conditions in past years. The results will help you decide how hot, cold, wet, or windy it might be!

Date:

Astronomy

Oct. 24, 2012 Rise Set
Actual Time 7:41 AM CDT 6:11 PM CDT
Civil Twilight 7:11 AM CDT 6:42 PM CDT
Nautical Twilight 6:36 AM CDT 7:16 PM CDT
Astronomical Twilight 6:02 AM CDT 7:50 PM CDT
Moon 3:39 PM CDT 2:24 AM CDT
Length of Visible Light 11h 30m
Length of Day
10h 30m
Waxing Gibbous, 76% of the Moon is Illuminated
Oct 24
Waxing Gibbous
Oct 29
Full
Nov 6
Last Quarter
Nov 13
New
Nov 20
First Quarter

Hourly Weather History & Observations

Time (CDT) Temp. Dew Point Humidity Pressure Visibility Wind Dir Wind Speed Gust Speed Precip Events Conditions
12:14 AM 60.8 °F 57.2 °F 88% 29.79 in 7.0 mi WSW 3.5 mph - N/A   Overcast
12:34 AM 60.8 °F 57.2 °F 88% 29.79 in 7.0 mi Calm Calm - N/A   Overcast
12:54 AM 57.2 °F 55.4 °F 94% 29.79 in 7.0 mi Calm Calm - N/A   Overcast
1:14 AM 59.0 °F 55.4 °F 88% 29.78 in 5.0 mi Calm Calm - N/A   Overcast
1:34 AM 57.2 °F 55.4 °F 94% 29.80 in 5.0 mi Calm Calm - N/A   Overcast
1:54 AM 60.8 °F 57.2 °F 88% 29.80 in 7.0 mi Calm Calm - N/A   Overcast
2:14 AM 60.8 °F 55.4 °F 82% 29.80 in 7.0 mi West 3.5 mph - N/A   Mostly Cloudy
2:34 AM 57.2 °F 55.4 °F 94% 29.80 in 7.0 mi West 4.6 mph - N/A   Scattered Clouds
2:54 AM 55.4 °F 53.6 °F 94% 29.81 in 4.0 mi Calm Calm - N/A   Clear
3:14 AM 55.4 °F 55.4 °F 100% 29.81 in 5.0 mi Calm Calm - N/A   Scattered Clouds
3:34 AM 55.4 °F 53.6 °F 94% 29.80 in 3.0 mi Calm Calm - N/A   Clear
3:54 AM 55.4 °F 53.6 °F 94% 29.81 in 0.5 mi Calm Calm - N/A Fog Fog
4:14 AM 55.4 °F 53.6 °F 94% 29.80 in 1.0 mi Calm Calm - N/A   Mostly Cloudy
4:34 AM 51.8 °F 51.8 °F 100% 29.81 in 1.0 mi Calm Calm - N/A   Mostly Cloudy
4:54 AM 51.8 °F 50.0 °F 94% 29.81 in 0.5 mi Calm Calm - N/A Fog Fog
5:14 AM 51.8 °F 51.8 °F 100% 29.81 in 1.5 mi Calm Calm - N/A   Overcast
5:33 AM 53.6 °F 51.8 °F 94% 29.82 in 2.5 mi Calm Calm - N/A   Overcast
5:54 AM 53.6 °F 53.6 °F 100% 29.82 in 3.0 mi Calm Calm - N/A   Overcast
6:14 AM 53.6 °F 53.6 °F 100% 29.82 in 2.5 mi Calm Calm - N/A   Overcast
6:34 AM 55.4 °F 55.4 °F 100% 29.83 in 3.0 mi WNW 6.9 mph - N/A   Mostly Cloudy
6:45 AM 55.4 °F 55.4 °F 100% 29.83 in 3.0 mi WNW 5.8 mph - N/A   Scattered Clouds
6:54 AM 55.4 °F 55.4 °F 100% 29.84 in 3.0 mi WNW 4.6 mph - N/A   Scattered Clouds
7:45 AM 53.6 °F 53.6 °F 100% 29.84 in 2.0 mi Calm Calm - N/A   Overcast
8:45 AM 55.4 °F 55.4 °F 100% 29.85 in 2.0 mi Calm Calm - N/A   Overcast
9:45 AM 57.2 °F 55.4 °F 94% 29.84 in 3.0 mi NW 9.2 mph - N/A   Overcast
10:45 AM 60.8 °F 55.4 °F 82% 29.83 in 6.0 mi North 9.2 mph - N/A   Overcast
11:45 AM 60.8 °F 57.2 °F 88% 29.83 in 7.0 mi NNE 9.2 mph - N/A   Overcast
12:45 PM 60.8 °F 55.4 °F 82% 29.81 in 7.0 mi North 11.5 mph - N/A   Overcast
1:55 PM 57.2 °F 55.4 °F 94% 29.78 in 3.0 mi North 6.9 mph - N/A   Light Drizzle
2:55 PM 57.2 °F 55.4 °F 94% 29.76 in 3.0 mi North 8.1 mph - N/A   Light Drizzle
3:45 PM 57.2 °F 55.4 °F 94% 29.75 in 2.5 mi NNW 8.1 mph - N/A   Light Drizzle
4:45 PM 55.4 °F 53.6 °F 94% 29.75 in 2.5 mi NNW 9.2 mph - N/A Rain Light Rain
5:45 PM 55.4 °F 53.6 °F 94% 29.76 in 5.0 mi NNW 15.0 mph 20.7 mph N/A   Light Drizzle
6:45 PM 53.6 °F 51.8 °F 94% 29.77 in 5.0 mi NNW 11.5 mph 17.3 mph N/A Rain Light Rain
7:45 PM 53.6 °F 51.8 °F 94% 29.78 in 7.0 mi NNW 10.4 mph - N/A   Overcast
8:45 PM 51.8 °F 50.0 °F 94% 29.78 in 7.0 mi North 11.5 mph - N/A   Overcast
9:14 PM 51.8 °F 50.0 °F 94% 29.78 in 10.0 mi North 11.5 mph - N/A   Light Drizzle
9:34 PM 51.8 °F 50.0 °F 94% 29.78 in 10.0 mi NNW 8.1 mph - N/A   Overcast
9:54 PM 51.8 °F 50.0 °F 94% 29.74 in 10.0 mi NNW 17.3 mph - N/A   Overcast
10:14 PM 51.8 °F 48.2 °F 88% 29.77 in 10.0 mi NW 13.8 mph - N/A   Overcast
10:34 PM 50.0 °F 48.2 °F 94% 29.78 in 10.0 mi NNW 15.0 mph 19.6 mph N/A   Overcast
10:54 PM 50.0 °F 48.2 °F 94% 29.78 in 10.0 mi NNW 13.8 mph 17.3 mph N/A   Overcast
11:14 PM 50.0 °F 48.2 °F 94% 29.77 in 7.0 mi NNW 17.3 mph - N/A   Overcast
11:34 PM 48.2 °F 46.4 °F 93% 29.77 in 10.0 mi North 15.0 mph 19.6 mph N/A   Overcast
11:54 PM 48.2 °F 46.4 °F 93% 29.78 in 10.0 mi NNW 12.7 mph - N/A   Overcast